Tracking 19570 objects as of 21-Feb-2019
HD Live streaming from Space Station
objects crossing your sky now

ARIANE 44L DEB

Track ARIANE 44L DEB now!


NORAD ID: 24723
Int'l Code: 1991-003F
Perigee: 598.2 km
Apogee: 30,799.9 km
Inclination: 6.5 °
Period: 543.8 minutes
Semi major axis: 22070 km
RCS: 0.4127 m2 (medium)
Launch date: January 15, 1991
Source: France (FR)
Launch site: FRENCH GUIANA (FRGUI)

Note: This is SATELLITE DEBRIS
aabbcc
Your satellite tracking list
Your tracking list is empty




NASA's NSSDC Master Catalog

Two Line Element Set (TLE):
1 24723U 91003F   19051.70189566 -.00000138 +00000-0 +39672-4 0  9993
2 24723 006.5312 236.2665 6842237 131.2590 350.6925 02.64788068220373
Source of the keplerian elements: AFSPC